N62YU NZQN-NZMF

Flight info

Callsign N62YU
Flight time 0h 20m
Altitude 13000
Route BRG1/05 QN DCT KSADE/N0307F120 DCT YPONT DCT DPONT
Aircraft P180/L-SBDFGM3RWXY/LB1

Departure

Time 2026-05-04 11:45
Airport Queenstown Airport (NZQN)

Arrival

Time 2026-05-04 12:05
Airport Milford Sound Airport (NZMF)
Time Latitude Longitude Altitude Speed Heading
2026-05-04 11:22 -45.02298 168.74072 1221 ft 0 kts 297°
2026-05-04 11:38 -45.02298 168.74068 1168 ft 0 kts 271°
2026-05-04 11:40 -45.02071 168.74055 1166 ft 19 kts 334°
2026-05-04 11:41 -45.02027 168.74066 1166 ft 0 kts 22°
2026-05-04 11:43 -45.02022 168.74069 1166 ft 5 kts 24°
2026-05-04 11:43 -45.01936 168.74107 1170 ft 19 kts 341°
2026-05-04 11:43 -45.01936 168.73972 1171 ft 17 kts 257°
2026-05-04 11:43 -45.01963 168.73815 1168 ft 5 kts 157°
2026-05-04 11:44 -45.01957 168.73844 1167 ft 0 kts 74°
2026-05-04 11:44 -45.01956 168.73849 1167 ft 2 kts 75°
2026-05-04 11:45 -45.01868 168.74410 1169 ft 115 kts 77°
2026-05-04 11:45 -45.01654 168.75787 1635 ft 154 kts 76°
2026-05-04 11:45 -45.01235 168.77196 2311 ft 159 kts 55°
2026-05-04 11:45 -45.00453 168.78399 2942 ft 174 kts 45°
2026-05-04 11:46 -44.99616 168.79587 3936 ft 165 kts 40°
2026-05-04 11:46 -44.98627 168.80298 4815 ft 160 kts 12°
2026-05-04 11:46 -44.97512 168.80569 5505 ft 163 kts
2026-05-04 11:46 -44.96435 168.80288 6272 ft 159 kts 331°
2026-05-04 11:47 -44.95560 168.79335 6940 ft 159 kts 321°
2026-05-04 11:47 -44.94758 168.78351 7752 ft 149 kts 316°
2026-05-04 11:47 -44.94009 168.77309 8369 ft 151 kts 314°
2026-05-04 11:47 -44.93322 168.76225 9079 ft 146 kts 306°
2026-05-04 11:48 -44.92766 168.75052 9707 ft 147 kts 300°
2026-05-04 11:48 -44.92273 168.73722 10344 ft 151 kts 295°
2026-05-04 11:48 -44.91875 168.72380 10983 ft 149 kts 290°
2026-05-04 11:48 -44.91588 168.70942 11532 ft 155 kts 284°
2026-05-04 11:49 -44.91420 168.69431 12097 ft 157 kts 280°
2026-05-04 11:49 -44.91129 168.67937 12640 ft 160 kts 293°
2026-05-04 11:49 -44.90576 168.66536 12977 ft 175 kts 305°
2026-05-04 11:49 -44.89711 168.65135 12987 ft 201 kts 311°
2026-05-04 11:50 -44.88711 168.63615 13007 ft 222 kts 314°
2026-05-04 11:50 -44.87565 168.62023 13002 ft 238 kts 312°
2026-05-04 11:50 -44.86420 168.60246 12999 ft 250 kts 310°
2026-05-04 11:50 -44.85222 168.58402 13004 ft 259 kts 312°
2026-05-04 11:51 -44.83945 168.56559 13000 ft 266 kts 313°
2026-05-04 11:51 -44.82667 168.54641 12999 ft 271 kts 311°
2026-05-04 11:51 -44.81362 168.52709 13017 ft 273 kts 313°
2026-05-04 11:51 -44.80069 168.50723 13007 ft 276 kts 311°
2026-05-04 11:52 -44.78750 168.48759 13013 ft 276 kts 314°
2026-05-04 11:52 -44.77418 168.46796 13012 ft 278 kts 311°
2026-05-04 11:52 -44.76100 168.44796 13014 ft 279 kts 313°
2026-05-04 11:52 -44.74764 168.42803 13008 ft 281 kts 312°
2026-05-04 11:53 -44.73405 168.40833 13026 ft 281 kts 313°
2026-05-04 11:53 -44.72034 168.38856 13018 ft 283 kts 313°
2026-05-04 11:53 -44.70714 168.36801 13024 ft 283 kts 310°
2026-05-04 11:53 -44.69395 168.34755 13023 ft 282 kts 313°
2026-05-04 11:55 -44.60188 168.21130 12639 ft 282 kts 308°
2026-05-04 11:55 -44.58820 168.19129 12471 ft 287 kts 317°
2026-05-04 11:56 -44.57377 168.17158 12297 ft 290 kts 314°
2026-05-04 11:56 -44.55970 168.15172 12121 ft 284 kts 315°
2026-05-04 11:56 -44.54587 168.13222 11946 ft 279 kts 311°
2026-05-04 11:56 -44.53323 168.11227 11796 ft 267 kts 312°
2026-05-04 11:57 -44.52032 168.09366 11637 ft 265 kts 311°
2026-05-04 11:57 -44.50849 168.07379 11456 ft 266 kts 310°
2026-05-04 11:57 -44.49565 168.05528 11278 ft 264 kts 315°
2026-05-04 11:57 -44.48225 168.03813 11092 ft 258 kts 315°
2026-05-04 11:58 -44.47045 168.01922 10932 ft 258 kts 308°
2026-05-04 11:58 -44.45953 167.99927 10762 ft 258 kts 303°
2026-05-04 11:58 -44.45351 167.97575 10587 ft 264 kts 276°
2026-05-04 11:58 -44.45803 167.95064 10408 ft 274 kts 248°
2026-05-04 11:59 -44.46736 167.92740 10225 ft 272 kts 247°
2026-05-04 11:59 -44.47447 167.90317 10045 ft 267 kts 256°
2026-05-04 11:59 -44.48011 167.87844 9877 ft 267 kts 256°
2026-05-04 11:59 -44.48645 167.85384 9691 ft 270 kts 253°
2026-05-04 12:00 -44.49428 167.82991 9507 ft 275 kts 242°
2026-05-04 12:00 -44.50897 167.81222 9249 ft 291 kts 209°
2026-05-04 12:00 -44.52892 167.80805 8901 ft 292 kts 177°
2026-05-04 12:00 -44.54807 167.81327 8535 ft 278 kts 170°
2026-05-04 12:01 -44.56727 167.81909 7749 ft 280 kts 169°
2026-05-04 12:01 -44.58623 167.82512 6739 ft 290 kts 165°
2026-05-04 12:02 -44.66101 167.90542 3172 ft 170 kts 139°
2026-05-04 12:03 -44.67215 167.90512 2120 ft 171 kts 196°
2026-05-04 12:03 -44.68286 167.90617 1407 ft 145 kts 148°
2026-05-04 12:03 -44.68474 167.91772 757 ft 128 kts 52°
2026-05-04 12:03 -44.67912 167.92712 323 ft 117 kts 29°
2026-05-04 12:04 -44.67194 167.92318 494 ft 125 kts 319°
2026-05-04 12:04 -44.66806 167.91297 869 ft 135 kts 252°
2026-05-04 12:04 -44.67676 167.91165 583 ft 151 kts 131°
2026-05-04 12:04 -44.67987 167.92381 589 ft 117 kts 101°
2026-05-04 12:05 -44.68151 167.93473 634 ft 115 kts 98°
2026-05-04 12:05 -44.67666 167.93829 340 ft 125 kts 292°
2026-05-04 12:05 -44.67562 167.92742 156 ft 112 kts 301°
2026-05-04 12:05 -44.67195 167.92016 61 ft 31 kts 306°
2026-05-04 12:06 -44.67154 167.91941 62 ft 3 kts 258°
2026-05-04 12:06 -44.67197 167.92021 61 ft 23 kts 124°
2026-05-04 12:06 -44.67311 167.92244 64 ft 20 kts 125°
2026-05-04 12:06 -44.67297 167.92368 62 ft 11 kts 69°
2026-05-04 12:07 -44.67301 167.92397 61 ft 0 kts 121°
2026-05-04 12:13 -44.67301 167.92398 61 ft 0 kts 121°
2026-05-04 12:14 -44.67319 167.92388 61 ft 9 kts 130°
2026-05-04 12:15 -44.67352 167.92454 61 ft 10 kts 127°
2026-05-04 12:15 -44.67406 167.92551 61 ft 15 kts 125°
2026-05-04 12:15 -44.67477 167.92692 61 ft 13 kts 125°
2026-05-04 12:15 -44.67481 167.92701 61 ft 0 kts 125°
2026-05-04 12:16 -44.67504 167.92743 61 ft 8 kts 131°
2026-05-04 12:16 -44.67521 167.92752 62 ft 0 kts 192°
2026-05-04 12:17 -44.67540 167.92707 64 ft 6 kts 277°
2026-05-04 12:17 -44.67534 167.92686 64 ft 0 kts 302°
2026-05-04 12:17 -44.67496 167.92610 64 ft 52 kts 305°
2026-05-04 12:17 -44.67076 167.91776 212 ft 137 kts 307°
2026-05-04 12:18 -44.66284 167.90862 1021 ft 156 kts 335°
2026-05-04 12:18 -44.65324 167.90253 2264 ft 161 kts 336°
2026-05-04 12:18 -44.64215 167.89602 3319 ft 168 kts 340°
2026-05-04 12:18 -44.63107 167.89183 4407 ft 171 kts 347°
2026-05-04 12:19 -44.61961 167.88750 5351 ft 166 kts 345°
2026-05-04 12:19 -44.60916 167.88176 6113 ft 164 kts 335°
2026-05-04 12:19 -44.59903 167.87435 6992 ft 156 kts 333°
2026-05-04 12:19 -44.58947 167.86807 7774 ft 156 kts 335°
2026-05-04 12:20 -44.57932 167.86176 8365 ft 158 kts 334°
2026-05-04 12:20 -44.56922 167.85611 9094 ft 157 kts 337°
2026-05-04 12:20 -44.55897 167.85066 9749 ft 158 kts 334°
2026-05-04 12:20 -44.54873 167.84518 10423 ft 158 kts 335°
2026-05-04 12:21 -44.53853 167.83934 11011 ft 159 kts 335°
2026-05-04 12:21 -44.52808 167.83357 11579 ft 163 kts 334°
2026-05-04 12:21 -44.51738 167.82800 12129 ft 166 kts 342°
2026-05-04 12:21 -44.50557 167.82853 12665 ft 177 kts
2026-05-04 12:22 -44.49439 167.83676 13198 ft 190 kts 35°
2026-05-04 12:22 -44.48651 167.85265 13522 ft 215 kts 61°
2026-05-04 12:22 -44.48120 167.87370 13538 ft 242 kts 66°
2026-05-04 12:22 -44.47548 167.89693 13536 ft 261 kts 65°
2026-05-04 12:23 -44.47029 167.91678 13541 ft 271 kts 65°
2026-05-04 12:23 -44.46410 167.94041 13539 ft 282 kts 65°
2026-05-04 12:23 -44.45727 167.96652 13538 ft 290 kts 65°
2026-05-04 12:23 -44.45020 167.99334 13536 ft 297 kts 65°
2026-05-04 12:24 -44.44300 168.02071 13537 ft 303 kts 65°